Weather History for Whiting Fld NAS, FL

Change the Weather History Date:

Wednesday, February 13, 2013

  Actual Average Record
Temperature  
Mean Temperature 60 °F -  
Max Temperature 73 °F 63 °F 73 °F (2000)
Min Temperature 46 °F 45 °F 25 °F (2006)
Degree Days  
Heating Degree Days 6    
Growing Degree Days 10 (Base 50)    
Moisture  
Dew Point 52 °F    
Average Humidity 80    
Maximum Humidity 100    
Minimum Humidity 60    
Precipitation  
Precipitation 0.14 in - - ()
Sea Level Pressure  
Sea Level Pressure 29.88 in    
Wind  
Wind Speed 9 mph (WNW)    
Max Wind Speed 15 mph    
Max Gust Speed 24 mph    
Visibility 8 miles    
Events Rain    
Averages and records for this station are not official NWS values.
T = Trace of Precipitation, MM = Missing Value Source: NWS Daily Summary

Daily Weather History Graph

Daily Weather History Graph

Search for Another Location

Airport:

Trip Planner

Search our weather history database for the weather conditions in past years. The results will help you decide how hot, cold, wet, or windy it might be!

Date:

Astronomy

Feb. 13, 2013 Rise Set
Actual Time 6:30 AM CST 5:34 PM CST
Civil Twilight 6:05 AM CST 5:59 PM CST
Nautical Twilight 5:37 AM CST 6:27 PM CST
Astronomical Twilight 5:09 AM CST 6:55 PM CST
Moon 8:18 AM CST (2/13) 9:15 PM CST (2/13)
Length of Visible Light 11h 53m
Length of Day
11h 04m
Waxing Crescent, 14% of the Moon is Illuminated
Feb 13
Waxing Crescent
Feb 17
First Quarter
Feb 25
Full
Mar 4
Last Quarter
Mar 11
New

Hourly Weather History & Observations

Time (CST) Temp. Windchill Dew Point Humidity Pressure Visibility Wind Dir Wind Speed Gust Speed Precip Events Conditions
12:05 AM 73.4 °F - 66.2 °F 78% 29.80 in 6.0 mi WSW 10.4 mph 19.6 mph N/A   Haze
12:18 AM 73.4 °F - 66.2 °F 78% 29.79 in 6.0 mi WSW 9.2 mph - 0.00 in Rain Light Rain
12:56 AM 73.0 °F - 64.9 °F 76% 29.75 in 6.0 mi SW 6.9 mph - 0.00 in   Haze
1:41 AM 73.4 °F - 64.4 °F 73% 29.77 in 6.0 mi WSW 9.2 mph - N/A   Haze
1:56 AM 73.0 °F - 64.9 °F 76% 29.75 in 5.0 mi WSW 9.2 mph - N/A   Haze
2:03 AM 73.4 °F - 64.4 °F 73% 29.79 in 5.0 mi SW 10.4 mph - N/A   Haze
2:38 AM 73.4 °F - 64.4 °F 73% 29.79 in 5.0 mi WSW 11.5 mph - N/A   Haze
2:56 AM 72.0 °F - 64.0 °F 76% 29.75 in 6.0 mi WSW 10.4 mph - N/A   Haze
3:56 AM 71.1 °F - 63.0 °F 75% 29.77 in 6.0 mi WSW 6.9 mph - N/A   Haze
4:14 AM 69.8 °F - 60.8 °F 73% 29.82 in 6.0 mi NW 15.0 mph 24.2 mph N/A   Haze
4:22 AM 68.0 °F - 60.8 °F 78% 29.83 in 7.0 mi NW 15.0 mph 23.0 mph N/A   Mostly Cloudy
4:29 AM 66.2 °F - 59.0 °F 78% 29.83 in 7.0 mi WNW 13.8 mph 21.9 mph N/A   Mostly Cloudy
4:43 AM 64.4 °F - 57.2 °F 77% 29.84 in 9.0 mi WNW 10.4 mph 19.6 mph N/A   Scattered Clouds
4:56 AM 64.0 °F - 55.9 °F 75% 29.80 in 9.0 mi WNW 8.1 mph - N/A   Clear
5:56 AM 59.0 °F - 55.0 °F 87% 29.83 in 10.0 mi WNW 9.2 mph - N/A   Scattered Clouds
6:56 AM 57.0 °F - 51.1 °F 81% 29.84 in 10.0 mi WNW 6.9 mph - N/A   Mostly Cloudy
7:56 AM 59.0 °F - 51.1 °F 75% 29.86 in 10.0 mi NW 15.0 mph - N/A   Mostly Cloudy
8:56 AM 59.0 °F - 48.9 °F 69% 29.87 in 10.0 mi NW 9.2 mph - N/A   Mostly Cloudy
9:56 AM 62.1 °F - 48.0 °F 60% 29.88 in 10.0 mi NW 12.7 mph - N/A   Mostly Cloudy
10:56 AM 55.0 °F - 45.0 °F 69% 29.91 in 10.0 mi WNW 12.7 mph - N/A   Overcast
11:25 AM 55.4 °F - 44.6 °F 67% 29.94 in 10.0 mi WNW 10.4 mph - 0.00 in Rain Light Rain
11:56 AM 54.0 °F - 46.0 °F 75% 29.90 in 10.0 mi WNW 11.5 mph - 0.00 in Rain Light Rain
12:56 PM 53.1 °F - 48.0 °F 83% 29.88 in 10.0 mi NW 6.9 mph - 0.00 in Rain Light Rain
1:03 PM 53.6 °F - 48.2 °F 82% 29.93 in 10.0 mi NW 4.6 mph - 0.00 in   Overcast
1:34 PM 53.6 °F - 46.4 °F 77% 29.93 in 10.0 mi NW 8.1 mph - 0.00 in   Overcast
1:56 PM 52.0 °F - 46.0 °F 80% 29.90 in 7.0 mi NW 10.4 mph - 0.00 in Rain Light Rain
2:56 PM 50.0 °F - 46.0 °F 86% 29.91 in 4.0 mi NW 11.5 mph - 0.02 in Rain Light Rain
3:09 PM 48.2 °F - 44.6 °F 87% 29.96 in 3.0 mi NW 15.0 mph 23.0 mph 0.03 in Rain Light Rain
3:56 PM 46.9 °F - 45.0 °F 93% 29.91 in 4.0 mi NNW 6.9 mph - 0.08 in Rain Light Rain
4:22 PM 46.4 °F 43.5 °F 44.6 °F 93% 29.96 in 4.0 mi NNW 5.8 mph - N/A Rain Light Rain
4:56 PM 46.9 °F - 46.0 °F 97% 29.94 in 10.0 mi NW 5.8 mph - 0.04 in   Mostly Cloudy
5:44 PM 46.4 °F 43.5 °F 46.4 °F 100% 29.97 in 10.0 mi NW 5.8 mph - N/A   Mostly Cloudy
5:56 PM 46.9 °F - 46.0 °F 97% 29.95 in 10.0 mi NW 4.6 mph - N/A   Mostly Cloudy
6:56 PM 48.0 °F - 45.0 °F 89% 29.96 in 10.0 mi WNW 4.6 mph - N/A   Mostly Cloudy
7:56 PM 46.9 °F - 44.1 °F 90% 29.97 in 10.0 mi NW 3.5 mph - N/A   Mostly Cloudy
8:56 PM 48.0 °F - 44.1 °F 86% 29.99 in 10.0 mi WNW 3.5 mph - N/A   Mostly Cloudy
9:56 PM 46.9 °F - 43.0 °F 86% 30.01 in 10.0 mi WNW 3.5 mph - N/A   Mostly Cloudy
10:56 PM 46.9 °F - 43.0 °F 86% 30.01 in 10.0 mi Variable 3.5 mph - N/A   Mostly Cloudy
11:56 PM 46.0 °F 43.9 °F 39.9 °F 79% 30.03 in 10.0 mi North 4.6 mph - N/A   Clear